Location: Asheville, NC
(35.6000°N, 82.5500°W)
Time: 19:44:58
(UTC-04:00)

AAUSAT CUBESAT 2 - Pass Details

Date: 17 March 2018
Orbit: 576 x 592 km, 97.5° (Epoch: 23 June)

Event Time Altitude Azimuth Distance (km) Brightness Sun altitude
Rises 20:34:34 0° 170° (S) 2,783 ? -12.0°
Reaches altitude 10° 20:36:43 10° 171° (S) 1,890 ? -12.4°
Maximum altitude 20:40:49 79° 259° (W) 599 ? -13.2°
Drops below altitude 10° 20:44:58 10° 346° (NNW) 1,914 ? -14.1°
Sets 20:47:09 0° 347° (NNW) 2,821 ? -14.5°
